ASH3994 KELP-KIAH

Flight info

Callsign ASH3994
Flight time N/A
Altitude 35000
Route TDOWN3 SFL FUSCO DIESL GUSHR3
Aircraft E170/M-SDE3GILORVW/S

Departure

Time 2026-04-25 13:10
Airport El Paso International Airport (KELP)

Arrival

Time N/A
Airport George Bush Intercontinental Airport (KIAH)
Time Latitude Longitude Altitude Speed Heading
2026-04-25 12:37 31.80051 -106.39465 3955 ft 0 kts 179°
2026-04-25 12:56 31.80064 -106.39465 3956 ft 4 kts 182°
2026-04-25 12:56 31.80091 -106.39460 3957 ft 4 kts 201°
2026-04-25 12:56 31.80107 -106.39441 3956 ft 2 kts 258°
2026-04-25 12:56 31.80108 -106.39439 3956 ft 0 kts 260°
2026-04-25 13:01 31.80107 -106.39441 3956 ft 0 kts 260°
2026-04-25 13:01 31.80107 -106.39448 3956 ft 1 kts 281°
2026-04-25 13:01 31.80120 -106.39483 3959 ft 9 kts 294°
2026-04-25 13:02 31.80127 -106.39501 3959 ft 0 kts 306°
2026-04-25 13:02 31.80129 -106.39503 3960 ft 0 kts 312°
2026-04-25 13:02 31.80143 -106.39516 3960 ft 2 kts 341°
2026-04-25 13:02 31.80151 -106.39514 3960 ft 0 kts 17°
2026-04-25 13:03 31.80160 -106.39485 3960 ft 9 kts 103°
2026-04-25 13:03 31.80166 -106.39400 3955 ft 13 kts 63°
2026-04-25 13:03 31.80235 -106.39321 3954 ft 15 kts 40°
2026-04-25 13:03 31.80315 -106.39235 3952 ft 17 kts 40°
2026-04-25 13:04 31.80408 -106.39132 3947 ft 20 kts 43°
2026-04-25 13:04 31.80510 -106.39021 3949 ft 20 kts 43°
2026-04-25 13:04 31.80610 -106.38910 3949 ft 20 kts 43°
2026-04-25 13:04 31.80711 -106.38802 3952 ft 19 kts 43°
2026-04-25 13:05 31.80806 -106.38697 3953 ft 19 kts 43°
2026-04-25 13:05 31.80890 -106.38578 3953 ft 19 kts 53°
2026-04-25 13:05 31.80976 -106.38463 3953 ft 19 kts 46°
2026-04-25 13:05 31.81067 -106.38337 3950 ft 21 kts 51°
2026-04-25 13:06 31.81164 -106.38204 3947 ft 22 kts 50°
2026-04-25 13:06 31.81268 -106.38057 3944 ft 24 kts 49°
2026-04-25 13:06 31.81377 -106.37909 3943 ft 25 kts 52°
2026-04-25 13:06 31.81486 -106.37753 3944 ft 24 kts 48°
2026-04-25 13:07 31.81591 -106.37603 3943 ft 24 kts 48°
2026-04-25 13:07 31.81701 -106.37456 3943 ft 24 kts 49°
2026-04-25 13:07 31.81815 -106.37299 3938 ft 27 kts 49°
2026-04-25 13:07 31.81937 -106.37130 3935 ft 28 kts 51°
2026-04-25 13:08 31.82046 -106.36971 3932 ft 21 kts 52°
2026-04-25 13:08 31.82156 -106.36891 3932 ft 19 kts 339°
2026-04-25 13:08 31.82237 -106.36985 3932 ft 16 kts 287°
2026-04-25 13:08 31.82216 -106.37109 3932 ft 15 kts 238°
2026-04-25 13:09 31.82123 -106.37240 3932 ft 34 kts 218°
2026-04-25 13:09 31.82041 -106.37293 3935 ft 0 kts 193°
2026-04-25 13:09 31.81958 -106.37355 3937 ft 40 kts 224°
2026-04-25 13:09 31.81719 -106.37816 3945 ft 99 kts 231°
2026-04-25 13:10 31.81126 -106.38656 3961 ft 164 kts 230°
2026-04-25 13:10 31.80301 -106.39779 4445 ft 187 kts 231°
2026-04-25 13:10 31.79398 -106.40845 5444 ft 192 kts 215°
2026-04-25 13:10 31.78029 -106.41145 6043 ft 214 kts 175°
2026-04-25 13:11 31.76550 -106.40672 6762 ft 227 kts 160°
2026-04-25 13:11 31.75171 -106.39670 7584 ft 241 kts 140°
2026-04-25 13:11 31.74118 -106.38113 8119 ft 253 kts 117°
2026-04-25 13:11 31.73472 -106.36180 8866 ft 262 kts 110°
2026-04-25 13:12 31.72842 -106.34065 9441 ft 290 kts 109°
2026-04-25 13:12 31.72270 -106.31728 10199 ft 309 kts 100°
2026-04-25 13:12 31.72206 -106.29048 10529 ft 342 kts 85°
2026-04-25 13:12 31.72304 -106.27165 11322 ft 342 kts 88°
2026-04-25 13:13 31.72549 -106.23343 12082 ft 373 kts 77°
2026-04-25 13:13 31.73662 -106.20570 13026 ft 374 kts 56°
2026-04-25 13:13 31.75093 -106.17988 14055 ft 381 kts 56°
2026-04-25 13:13 31.76526 -106.15339 15032 ft 387 kts 56°
2026-04-25 13:14 31.77981 -106.12663 16044 ft 390 kts 56°
2026-04-25 13:14 31.79080 -106.09723 16889 ft 399 kts 78°
2026-04-25 13:14 31.79226 -106.06476 17747 ft 400 kts 95°
2026-04-25 13:14 31.79106 -106.03186 18521 ft 405 kts 92°
2026-04-25 13:15 31.79041 -105.99849 19262 ft 411 kts 92°
2026-04-25 13:15 31.78979 -105.96470 19968 ft 416 kts 92°
2026-04-25 13:15 31.78919 -105.93046 20667 ft 423 kts 92°
2026-04-25 13:15 31.78854 -105.89574 21378 ft 427 kts 92°
2026-04-25 13:16 31.78785 -105.86038 21731 ft 441 kts 92°
2026-04-25 13:16 31.78709 -105.82404 22349 ft 445 kts 92°
2026-04-25 13:16 31.78639 -105.78801 23202 ft 442 kts 92°
2026-04-25 13:16 31.78559 -105.75131 23459 ft 454 kts 92°
2026-04-25 13:17 31.78472 -105.71387 23849 ft 462 kts 92°
2026-04-25 13:17 31.78356 -105.67584 24275 ft 468 kts 94°
2026-04-25 13:17 31.78117 -105.63800 24687 ft 473 kts 95°
2026-04-25 13:17 31.77886 -105.59920 25114 ft 478 kts 95°
2026-04-25 13:18 31.77651 -105.56001 25566 ft 483 kts 95°
2026-04-25 13:18 31.77417 -105.52060 26105 ft 484 kts 95°
2026-04-25 13:18 31.77184 -105.48108 26668 ft 485 kts 95°
2026-04-25 13:18 31.76950 -105.44149 27219 ft 486 kts 95°
2026-04-25 13:19 31.76718 -105.40182 27746 ft 487 kts 95°
2026-04-25 13:19 31.76482 -105.36206 28245 ft 488 kts 95°
2026-04-25 13:19 31.76245 -105.32225 28707 ft 489 kts 95°
2026-04-25 13:19 31.76164 -105.30878 28876 ft 489 kts 95°
2026-04-25 13:20 31.75764 -105.24224 29584 ft 493 kts 95°
2026-04-25 13:20 31.75519 -105.20209 30021 ft 494 kts 95°
2026-04-25 13:20 31.75277 -105.16184 30449 ft 494 kts 95°
2026-04-25 13:20 31.75030 -105.12158 30912 ft 494 kts 95°
2026-04-25 13:21 31.74741 -105.08144 31357 ft 492 kts 98°
2026-04-25 13:21 31.74232 -105.04168 31771 ft 492 kts 101°
2026-04-25 13:21 31.73678 -105.00206 32194 ft 492 kts 101°
2026-04-25 13:21 31.73127 -104.96243 32608 ft 491 kts 101°
2026-04-25 13:22 31.72577 -104.92282 32998 ft 491 kts 101°
2026-04-25 13:22 31.72026 -104.88320 33371 ft 492 kts 101°
2026-04-25 13:22 31.71476 -104.84351 33780 ft 491 kts 101°
2026-04-25 13:23 31.70378 -104.76439 34500 ft 491 kts 101°
2026-04-25 13:23 31.69826 -104.72479 34780 ft 492 kts 100°
2026-04-25 13:23 31.69273 -104.68518 35083 ft 492 kts 100°
2026-04-25 13:24 31.68153 -104.60532 35035 ft 503 kts 101°
2026-04-25 13:24 31.67011 -104.52417 35035 ft 505 kts 101°
2026-04-25 13:25 31.65861 -104.44276 35036 ft 506 kts 101°
2026-04-25 13:25 31.64703 -104.36126 34980 ft 507 kts 101°
2026-04-25 13:26 31.63541 -104.27974 34960 ft 506 kts 101°
2026-04-25 13:26 31.62372 -104.19823 34951 ft 506 kts 101°
2026-04-25 13:27 31.61201 -104.11674 34941 ft 507 kts 101°
2026-04-25 13:27 31.60021 -104.03529 34945 ft 506 kts 101°
2026-04-25 13:28 31.58844 -103.95379 34923 ft 507 kts 101°
2026-04-25 13:28 31.57659 -103.87239 34934 ft 507 kts 101°
2026-04-25 13:29 31.56473 -103.79093 34925 ft 506 kts 101°
2026-04-25 13:29 31.55291 -103.71021 34918 ft 505 kts 101°
2026-04-25 13:30 31.53496 -103.58845 34918 ft 506 kts 101°
2026-04-25 13:31 31.51687 -103.46675 34919 ft 505 kts 101°
2026-04-25 13:31 31.50676 -103.39889 34916 ft 505 kts 101°
2026-04-25 13:32 31.49461 -103.31799 34918 ft 503 kts 101°
2026-04-25 13:32 31.48255 -103.23776 34913 ft 503 kts 101°
2026-04-25 13:33 31.47045 -103.15715 34908 ft 503 kts 101°
2026-04-25 13:33 31.45817 -103.07649 34909 ft 502 kts 101°
2026-04-25 13:34 31.44588 -102.99604 34898 ft 502 kts 101°
2026-04-25 13:34 31.43362 -102.91562 34898 ft 502 kts 101°
2026-04-25 13:35 31.42129 -102.83533 34899 ft 501 kts 101°
2026-04-25 13:35 31.40901 -102.75508 34897 ft 501 kts 101°
2026-04-25 13:36 31.39666 -102.67528 34899 ft 501 kts 101°
2026-04-25 13:36 31.38416 -102.59508 34906 ft 501 kts 101°
2026-04-25 13:37 31.37161 -102.51485 34907 ft 501 kts 100°
2026-04-25 13:37 31.35899 -102.43470 34909 ft 501 kts 101°
2026-04-25 13:38 31.34634 -102.35451 34908 ft 501 kts 101°
2026-04-25 13:38 31.33363 -102.27442 34908 ft 501 kts 101°
2026-04-25 13:39 31.32091 -102.19426 34908 ft 501 kts 101°
2026-04-25 13:39 31.30825 -102.11425 34907 ft 500 kts 101°
2026-04-25 13:40 31.29537 -102.03440 34918 ft 500 kts 101°
2026-04-25 13:40 31.28265 -101.95507 34915 ft 500 kts 101°
2026-04-25 13:41 31.26972 -101.87526 34932 ft 499 kts 101°
2026-04-25 13:41 31.25674 -101.79540 34925 ft 500 kts 101°
2026-04-25 13:42 31.24384 -101.71554 34926 ft 500 kts 101°
2026-04-25 13:42 31.23073 -101.63576 34936 ft 500 kts 101°
2026-04-25 13:43 31.21755 -101.55602 34939 ft 500 kts 101°
2026-04-25 13:43 31.20452 -101.47628 34932 ft 500 kts 101°
2026-04-25 13:44 31.19143 -101.39656 34938 ft 499 kts 101°
2026-04-25 13:44 31.17886 -101.31681 34939 ft 499 kts 97°
2026-04-25 13:45 31.17135 -101.23616 34925 ft 499 kts 95°
2026-04-25 13:45 31.16467 -101.15607 34923 ft 499 kts 94°
2026-04-25 13:46 31.15813 -101.07542 34924 ft 499 kts 94°
2026-04-25 13:46 31.15164 -100.99467 34927 ft 500 kts 94°
2026-04-25 13:47 31.14518 -100.91385 34918 ft 500 kts 94°
2026-04-25 13:47 31.13873 -100.83306 34905 ft 500 kts 94°
2026-04-25 13:48 31.13223 -100.75228 34892 ft 500 kts 94°
2026-04-25 13:48 31.12569 -100.67149 34902 ft 499 kts 94°
2026-04-25 13:49 31.11912 -100.59073 34866 ft 500 kts 94°
2026-04-25 13:49 31.11255 -100.51004 34879 ft 499 kts 94°
2026-04-25 13:50 31.10586 -100.42928 34883 ft 499 kts 94°
2026-04-25 13:50 31.09915 -100.34858 34882 ft 500 kts 94°
2026-04-25 13:51 31.09239 -100.26789 34878 ft 500 kts 94°
2026-04-25 13:51 31.08568 -100.18779 34879 ft 500 kts 94°
2026-04-25 13:52 31.07887 -100.10711 34890 ft 499 kts 94°
2026-04-25 13:52 31.07197 -100.02648 34890 ft 500 kts 94°
2026-04-25 13:53 31.06505 -99.94582 34879 ft 499 kts 94°
2026-04-25 13:53 31.05811 -99.86535 34885 ft 498 kts 94°
2026-04-25 13:54 31.05120 -99.78491 34892 ft 499 kts 94°
2026-04-25 13:54 31.04411 -99.70441 34885 ft 499 kts 94°
2026-04-25 13:55 31.03703 -99.62398 34883 ft 499 kts 94°
2026-04-25 13:55 31.02990 -99.54353 34883 ft 499 kts 94°
2026-04-25 13:56 31.02281 -99.46308 34879 ft 499 kts 94°
2026-04-25 13:56 31.01564 -99.38262 34877 ft 499 kts 94°
2026-04-25 13:57 31.00839 -99.30229 34882 ft 498 kts 94°
2026-04-25 13:57 31.00107 -99.22188 34883 ft 498 kts 94°
2026-04-25 13:58 30.99379 -99.14207 34894 ft 498 kts 94°
2026-04-25 13:58 30.98640 -99.06178 34889 ft 498 kts 94°
2026-04-25 13:59 30.97892 -98.98142 34886 ft 499 kts 94°
2026-04-25 13:59 30.97142 -98.90112 34891 ft 498 kts 94°
2026-04-25 14:00 30.96382 -98.82085 34893 ft 498 kts 95°
2026-04-25 14:00 30.95571 -98.74062 34884 ft 498 kts 94°
2026-04-25 14:01 30.94776 -98.66039 34888 ft 498 kts 94°
2026-04-25 14:01 30.93990 -98.58008 34890 ft 499 kts 94°
2026-04-25 14:02 30.93211 -98.50035 34889 ft 499 kts 94°
2026-04-25 14:02 30.92430 -98.42001 34905 ft 499 kts 94°
2026-04-25 14:03 30.91645 -98.33973 34901 ft 499 kts 94°
2026-04-25 14:03 30.90859 -98.25952 34898 ft 498 kts 94°
2026-04-25 14:04 30.90070 -98.17929 34900 ft 498 kts 94°
2026-04-25 14:04 30.89277 -98.09918 34899 ft 498 kts 94°
2026-04-25 14:05 30.88481 -98.01904 34899 ft 498 kts 94°
2026-04-25 14:05 30.87679 -97.93914 34906 ft 494 kts 94°
2026-04-25 14:06 30.86875 -97.85972 34909 ft 494 kts 94°
2026-04-25 14:06 30.86063 -97.78003 34911 ft 495 kts 94°
2026-04-25 14:07 30.85250 -97.70071 34909 ft 495 kts 94°
2026-04-25 14:07 30.84428 -97.62128 34919 ft 494 kts 94°
2026-04-25 14:08 30.83612 -97.54247 34918 ft 493 kts 94°
2026-04-25 14:08 30.82785 -97.46322 34922 ft 494 kts 94°
2026-04-25 14:09 30.81952 -97.38394 34930 ft 492 kts 94°
2026-04-25 14:09 30.81119 -97.30488 34924 ft 493 kts 94°
2026-04-25 14:10 30.80279 -97.22573 34893 ft 493 kts 94°
2026-04-25 14:10 30.79858 -97.18609 34417 ft 492 kts 94°
2026-04-25 14:10 30.79440 -97.14685 34061 ft 488 kts 94°
2026-04-25 14:10 30.79018 -97.10750 33287 ft 492 kts 94°
2026-04-25 14:11 30.78595 -97.06815 32660 ft 489 kts 95°
2026-04-25 14:11 30.78172 -97.02894 31997 ft 487 kts 95°
2026-04-25 14:11 30.77750 -96.99003 31329 ft 484 kts 95°
2026-04-25 14:11 30.77328 -96.95130 30669 ft 480 kts 95°
2026-04-25 14:12 30.76910 -96.91291 30046 ft 476 kts 96°
2026-04-25 14:12 30.76500 -96.87534 29410 ft 473 kts 96°
2026-04-25 14:12 30.76087 -96.83755 28783 ft 470 kts 96°
2026-04-25 14:12 30.75675 -96.79983 28170 ft 469 kts 96°
2026-04-25 14:13 30.75262 -96.76225 27538 ft 469 kts 96°
2026-04-25 14:13 30.74849 -96.72470 26927 ft 468 kts 96°
2026-04-25 14:13 30.74433 -96.68715 26280 ft 469 kts 96°
2026-04-25 14:13 30.74016 -96.64958 25688 ft 468 kts 97°
2026-04-25 14:14 30.73601 -96.61207 25045 ft 468 kts 97°
2026-04-25 14:14 30.73185 -96.57477 24437 ft 464 kts 97°
2026-04-25 14:14 30.72773 -96.53777 23818 ft 458 kts 97°
2026-04-25 14:14 30.72362 -96.50126 23225 ft 453 kts 97°
2026-04-25 14:15 30.71957 -96.46515 22628 ft 448 kts 97°
2026-04-25 14:15 30.71821 -96.45304 22433 ft 446 kts 97°
2026-04-25 14:15 30.71154 -96.39418 21459 ft 439 kts 97°
2026-04-25 14:15 30.70759 -96.35921 20891 ft 433 kts 97°
2026-04-25 14:16 30.70121 -96.32528 20307 ft 428 kts 112°
2026-04-25 14:16 30.68759 -96.29483 19795 ft 422 kts 121°
2026-04-25 14:16 30.67364 -96.26497 19188 ft 420 kts 120°
2026-04-25 14:16 30.65989 -96.23525 18637 ft 415 kts 120°
2026-04-25 14:17 30.64651 -96.20617 18091 ft 412 kts 120°
2026-04-25 14:17 30.63307 -96.17696 17534 ft 408 kts 120°
2026-04-25 14:17 30.61976 -96.14808 16999 ft 403 kts 120°
2026-04-25 14:17 30.60668 -96.11965 16463 ft 395 kts 119°
2026-04-25 14:18 30.59383 -96.09174 15965 ft 387 kts 119°
2026-04-25 14:18 30.58127 -96.06444 15531 ft 380 kts 119°
2026-04-25 14:18 30.56882 -96.03744 15019 ft 378 kts 119°
2026-04-25 14:18 30.55647 -96.01068 14516 ft 375 kts 119°
2026-04-25 14:19 30.54427 -95.98420 14022 ft 369 kts 119°
2026-04-25 14:19 30.53629 -95.96694 13696 ft 364 kts 119°
2026-04-25 14:19 30.52445 -95.94131 13223 ft 357 kts 118°
2026-04-25 14:19 30.51285 -95.91620 12748 ft 350 kts 118°
2026-04-25 14:20 30.50142 -95.89148 12295 ft 344 kts 118°
2026-04-25 14:20 30.49386 -95.87520 12138 ft 335 kts 118°
2026-04-25 14:20 30.48206 -95.84317 11861 ft 320 kts 109°
2026-04-25 14:20 30.47445 -95.81923 11815 ft 313 kts 110°
2026-04-25 14:21 30.46688 -95.79561 11854 ft 313 kts 110°
2026-04-25 14:21 30.45923 -95.77188 11864 ft 316 kts 110°
2026-04-25 14:21 30.45148 -95.74796 11826 ft 317 kts 110°
2026-04-25 14:21 30.44368 -95.72400 11839 ft 318 kts 110°
2026-04-25 14:22 30.43585 -95.70001 11858 ft 318 kts 110°
2026-04-25 14:22 30.42799 -95.67602 11859 ft 319 kts 110°
2026-04-25 14:22 30.42008 -95.65197 11825 ft 319 kts 111°
2026-04-25 14:22 30.41221 -95.62797 11830 ft 319 kts 111°
2026-04-25 14:23 30.40431 -95.60394 11818 ft 319 kts 110°
2026-04-25 14:23 30.39641 -95.57994 11806 ft 319 kts 111°
2026-04-25 14:23 30.38849 -95.55591 11790 ft 319 kts 111°
2026-04-25 14:23 30.38055 -95.53190 11777 ft 319 kts 111°
2026-04-25 14:24 30.37262 -95.50791 11758 ft 319 kts 111°
2026-04-25 14:24 30.36470 -95.48394 11744 ft 319 kts 110°
2026-04-25 14:24 30.35675 -95.45994 11728 ft 319 kts 111°
2026-04-25 14:24 30.34880 -95.43598 11707 ft 319 kts 111°
2026-04-25 14:25 30.34087 -95.41205 11696 ft 319 kts 111°